Dodge City, KS

4:02 PM CDT on September 22, 2017 (GMT -0500)
Dodge City Regional

Weather History for KDDC - September, 2012

Change the Weather History Date:

Friday, September 7, 2012

  Actual Average Record
Temperature  
Mean Temperature 63 °F -  
Max Temperature 73 °F 87 °F 102 °F (1971)
Min Temperature 53 °F 62 °F 36 °F (1898)
Degree Days  
Heating Degree Days 2    
Growing Degree Days 13 (Base 50)    
Moisture  
Dew Point 52 °F    
Average Humidity 61    
Maximum Humidity 80    
Minimum Humidity 37    
Precipitation  
Precipitation 0.00 in - - ()
Sea Level Pressure  
Sea Level Pressure 29.97 in    
Wind  
Wind Speed 17 mph (NNE)    
Max Wind Speed 36 mph    
Max Gust Speed 44 mph    
Visibility 10 miles    
Events      
Averages and records for this station are not official NWS values.
T = Trace of Precipitation, MM = Missing Value Source: NWS Daily Summary

Daily Weather History Graph

Daily Weather History Graph

Search for Another Location

Airport or City:

Trip Planner

Search our weather history database for the weather conditions in past years. The results will help you decide how hot, cold, wet, or windy it might be!

Date:

Astronomy

Sep. 07, 2012 Rise Set
Actual Time 7:15 AM CDT 7:59 PM CDT
Civil Twilight 6:48 AM CDT 8:25 PM CDT
Nautical Twilight 6:17 AM CDT 8:57 PM CDT
Astronomical Twilight 5:45 AM CDT 9:29 PM CDT
Moon No Moon Rise 2:01 PM CDT (9/7)
Length of Visible Light 13h 36m
Length of Day
12h 43m
Waning Gibbous, 58% of the Moon is Illuminated
Sep 7
Waning Gibbous
Sep 8
Last Quarter
Sep 15
New
Sep 22
First Quarter
Sep 29
Full

Hourly Weather History & Observations

Time (CDT) Temp. Dew Point Humidity Pressure Visibility Wind Dir Wind Speed Gust Speed Precip Events Conditions
12:52 AM 70.0 °F 59.0 °F 68% 29.83 in 10.0 mi ESE 17.3 mph 26.5 mph N/A   Clear
1:52 AM 70.0 °F 59.0 °F 68% 29.81 in 10.0 mi SE 12.7 mph - N/A   Clear
2:52 AM 70.0 °F 59.0 °F 68% 29.79 in 10.0 mi SE 11.5 mph - N/A   Clear
3:52 AM 68.0 °F 57.9 °F 70% 29.78 in 10.0 mi SSE 12.7 mph - N/A   Clear
4:52 AM 69.1 °F 57.0 °F 65% 29.77 in 10.0 mi South 12.7 mph - N/A   Clear
5:52 AM 66.9 °F 57.9 °F 73% 29.78 in 10.0 mi South 9.2 mph - N/A   Clear
6:52 AM 66.0 °F 57.9 °F 75% 29.78 in 10.0 mi South 8.1 mph - N/A   Clear
7:52 AM 70.0 °F 60.1 °F 71% 29.87 in 10.0 mi North 12.7 mph - N/A   Mostly Cloudy
8:52 AM 68.0 °F 55.9 °F 65% 29.88 in 10.0 mi NE 19.6 mph 25.3 mph N/A   Clear
9:52 AM 72.0 °F 51.1 °F 48% 29.92 in 10.0 mi NNE 25.3 mph 33.4 mph N/A   Clear
10:52 AM 71.1 °F 46.9 °F 42% 29.96 in 10.0 mi NNE 29.9 mph 41.4 mph N/A   Partly Cloudy
11:52 AM 68.0 °F 46.0 °F 45% 29.98 in 9.0 mi NNE 35.7 mph 43.7 mph N/A   Overcast
12:52 PM 64.0 °F 48.9 °F 58% 30.02 in 10.0 mi NNE 28.8 mph 39.1 mph N/A   Overcast
1:52 PM 66.0 °F 52.0 °F 60% 30.05 in 10.0 mi NNE 31.1 mph 41.4 mph N/A   Mostly Cloudy
2:52 PM 64.9 °F 51.1 °F 61% 30.06 in 10.0 mi NNE 26.5 mph 35.7 mph N/A   Mostly Cloudy
3:52 PM 64.9 °F 50.0 °F 58% 30.07 in 10.0 mi NNE 25.3 mph 33.4 mph N/A   Mostly Cloudy
4:52 PM 66.9 °F 48.0 °F 51% 30.08 in 10.0 mi North 24.2 mph 31.1 mph N/A   Clear
5:52 PM 66.9 °F 48.9 °F 52% 30.08 in 10.0 mi NNE 20.7 mph 26.5 mph N/A   Clear
6:52 PM 66.9 °F 48.9 °F 52% 30.09 in 10.0 mi North 11.5 mph - N/A   Clear
7:52 PM 64.0 °F 48.9 °F 58% 30.11 in 10.0 mi North 6.9 mph - N/A   Clear
8:52 PM 59.0 °F 48.9 °F 69% 30.14 in 10.0 mi NNW 5.8 mph - N/A   Clear
9:52 PM 57.0 °F 48.0 °F 72% 30.17 in 10.0 mi North 8.1 mph - N/A   Clear
10:52 PM 53.1 °F 46.9 °F 80% 30.19 in 10.0 mi NW 6.9 mph - N/A   Clear
11:52 PM 53.1 °F 46.9 °F 80% 30.20 in 10.0 mi NW 5.8 mph - N/A   Clear